STARLINK-4513 (53548 NORAD) Tracking and Keplerian Element Data

This shows tracking and keplerian element data for the satellite.

Feedback or suggestion? Click here.




ElementValue
Catalog53548
NameSTARLINK-4513
Epoch Orbit1444
Epoch Day325.03547333
Epoch Year2022
RAAN72.0136
Inclination53.2185
Eccentricity0.0001378
Argument of Perigee67.4874
Mean Anonmoly292.6264
Mean Motion15.08838021
Decay Rate4.47E-06
L11 53548U 22101X 22325.03547333 .00000447 00000+0 46159-4 0 9996
L22 53548 53.2185 72.0136 0001378 67.4874 292.6264 15.08838021 14445



Live tracking and technical data element details for STARLINK-4513 (NORAD 53548). STARLINK-4513 can be tracked NOW for your location showing map with azimuth and elevation plus other details from your city location.







IsCatalogInMostPopularTable: catalog: 53548, numindb: 3
Update: records affected: 1



GetName: 53548 STARLINK-4513

Hit Count: updated at: Thu, 08 Dec 2022 20:18:55 GMT